Regional Weather Roundup
Issued by NWS

Home | Current Version | Previous Version | Graphics & Text | Print | Product List | Glossary On
Versions: 1 2 3 4 5 6 7 8 9 10 11 12 13 14 15 16 17 18 19 20 21 22 23 24 25 26 27 28 29 30 31 32 33 34 35 36 37 38 39 40 41 42 43 44 45 46 47 48 49 50
000
ASUS43 KDTX 271310
RWRMI
MICHIGAN HOURLY REGIONAL WEATHER ROUNDUP
NATIONAL WEATHER SERVICE DETROIT/PONTIAC MI
ISSUED BY NATIONAL WEATHER SERVICE GRAND RAPIDS MI
900 AM EDT TUE JUN 27 2017

NOTE: "FAIR" INDICATES FEW OR NO CLOUDS BELOW 12,000 FEET WITH NO
SIGNIFICANT WEATHER AND/OR OBSTRUCTION TO VISIBILITY.

MIZ047>049-052>055-059>063-066>070-074>076-081>083-271400-
SOUTHEAST LOWER MICHIGAN

CITY           SKY/WX    TMP DP  RH WIND       PRES   REMARKS
ADRIAN         SUNNY     59  47  64 NW7       30.11R
ALMA           SUNNY     59  51  74 W12G17    30.08R
ANN ARBOR      MOSUNNY   58  47  66 W13G18    30.08R
BAD AXE        PTSUNNY   56  49  78 NW10      30.03R
DETROIT CITY   SUNNY     59  48  67 NW9       30.06R
DETROIT        MOSUNNY   60  48  64 NW10      30.07R
FLINT          MOSUNNY   58  49  72 NW14      30.07R
GROSSE ILE     SUNNY     59  46  62 NW12      30.06R
HILLSDALE      SUNNY     57  45  62 NW6       30.11R
HOWELL         SUNNY     58  47  68 W8        30.08R

CITY           SKY/WX    TMP DP  RH WIND       PRES   REMARKS
JACKSON        SUNNY     58  48  69 NW9       30.10R
LANSING        SUNNY     61  49  64 W10       30.09R
MASON          SUNNY     58  50  75 NW9       30.09S
MONROE         SUNNY     59  48  67 NW10      30.08R
MT. CLEMENS    MOSUNNY   60  49  68 NW13      30.02R
PONTIAC        MOSUNNY   58  48  69 W20       30.05R
PORT HOPE        N/A     57  50  77 NW13      29.99R
PORT HURON     CLOUDY    55  48  76 W9        30.03R
TRI CITIES     SUNNY     59  52  77 W9        30.06R
YPSILANTI      SUNNY     61  49  64 NW12      30.08R
$$
MIZ043>046-050>051-056>058-064>065-071>073-077>080-271400-
SOUTHWEST LOWER MICHIGAN

CITY           SKY/WX    TMP DP  RH WIND       PRES   REMARKS
BATTLE CREEK   SUNNY     59  51  75 W10       30.12R
BENTON HARBOR  SUNNY     64  48  56 W13       30.12R
BIG RAPIDS     SUNNY     58  49  72 W14       30.06S
COLDWATER      SUNNY     58  47  67 W3        30.12R
HOLLAND        SUNNY     63  51  65 W12       30.11R
GRAND RAPIDS   MOSUNNY   60  53  77 W8        30.09R
KALAMAZOO      SUNNY     60  49  66 W8        30.12R
MARSHALL       SUNNY     59  50  72 W8        30.10S
MOUNT PLEASANT MOSUNNY   59  50  72 W8        30.05S
MUSKEGON       MOSUNNY   63  52  67 W8G17     30.09R
STURGIS        SUNNY     58  51  78 NW3       30.12R
$$
MIZ016>042-271400-
NORTHERN LOWER MICHIGAN

CITY           SKY/WX    TMP DP  RH WIND       PRES   REMARKS
ALPENA         SUNNY     58  52  80 W9        30.00R
BEAVER ISLAND  SUNNY     58  50  74 W8        30.01R
BELLAIRE       PTSUNNY   57  55  95 S5        30.02S
CADILLAC       SUNNY     56  53  88 SW7       30.04R
CHARLEVOIX     SUNNY     59  55  84 W8        30.04R
GAYLORD        PTSUNNY   55  51  86 W8        30.02R
HOUGHTON LAKE  SUNNY     57  51  80 W9        30.04R
MANISTEE       SUNNY     58  55  90 W6        30.05R
OSCODA         SUNNY     60  49  66 NW16      30.00R
PELLSTON       SUNNY     59  50  72 NW7       30.01R
TRAVERSE CITY  MOSUNNY   59  54  83 SW6       30.01S
LUDINGTON      SUNNY     59  53  80 W5        30.06R
$$
MIZ007>008-015-271400-
EASTERN UPPER MICHIGAN

CITY           SKY/WX    TMP DP  RH WIND       PRES   REMARKS
KINROSS        SUNNY     52  48  86 W8        29.99R
MACKINAC ISLAN SUNNY     56  52  84 W10       30.00R
NEWBERRY       PTSUNNY   55  51  87 W3        29.99R
S. S. MARIE    SUNNY     55  49  80 W5        29.97R
$$
MIZ004>006-011>014-085-271400-
CENTRAL UPPER MICHIGAN

CITY           SKY/WX    TMP DP  RH WIND       PRES   REMARKS
MANISTIQUE     CLOUDY    54  51  89 CALM      30.01R
ESCANABA       SUNNY     57  50  77 NW8       30.02R
MENOMINEE      SUNNY     57  50  77 N6        30.05R
SAWYER-GWINN   MOSUNNY   55  48  76 NW7       30.02R
$$
MIZ001>003-009>011-084-271400-
WESTERN UPPER MICHIGAN

CITY           SKY/WX    TMP DP  RH WIND       PRES   REMARKS
IRON MOUNTAIN  SUNNY     56  47  71 NW5       30.03S
HOUGHTON       MOSUNNY   55  48  77 W12       30.00R
COPPER HARBOR    N/A     58  51  78 N5        29.98R
IRONWOOD       SUNNY     58  48  69 W8        30.05R
$$

ABBREVIATIONS USED IN REMARKS
   TC - TEMPERATURE IN CELSIUS
  WCI - WIND CHILL INDEX
   HX - HEAT INDEX
  VSB - VISIBILITY





USA.gov is the U.S. government's official web portal to all federal, state and local government web resources and services.